This demonstration page uses our WeatherBlox Daily Observations layout. Learn more.

41.86663, -103.66717

Hourly Observations for December 14, 2019

Temp ( °F °C ) Dew Point ( °F °C ) Humidity (%) Winds ( mph kmh ) Pressure ( in mb ) Visibility ( mi km ) Precip ( " mm )
12:53 am 00:53 Clear 25 -3.9 23 -5 92 92 NW 6 9 29.92 1013 10 16.0934 0 0
1:53 am 01:53 Clear 26 -3.3 23 -5 88 88 N 3 6 29.89 1012 10 16.0934 0 0
2:53 am 02:53 Mostly Cloudy 26 -3.3 24 -4.4 92 92 ENE 6 9 29.88 1012 10 16.0934 0 0
3:53 am 03:53 Cloudy 26 -3.3 24 -4.4 92 92 E 8 13 29.87 1011 10 16.0934 0 0
4:19 am 04:19 Cloudy 26 -3.3 25 -3.9 96 96 E 6 9 29.97 1015 10 16.0934 0 0
4:28 am 04:28 Cloudy 27 -3 25 -4 93 93 ESE 5 7 29.98 1015 10 16.0934 0 0
4:53 am 04:53 Cloudy 27 -2.8 25 -3.9 92 92 S 5 7 29.89 1012 10 16.0934 0 0
5:44 am 05:44 Cloudy with Light Snow 27 -3 27 -3 100 100 Calm 30 1016 2 3.21868 0 0
5:53 am 05:53 Cloudy with Light Snow 27 -2.8 26 -3.3 96 96 ESE 5 7 29.91 1013 2 3.21868 0.001 0.001
6:13 am 06:13 Cloudy with Light Snow 27 -2.8 26 -3.3 96 96 ESE 5 7 30 1016 1.5 2.41401 0.01 0.254
6:23 am 06:23 Cloudy with Light Snow 28 -2.2 27 -2.8 96 96 SE 5 7 29.99 1015 1.25 2.011675 0.01 0.254
6:53 am 06:53 Cloudy with Light Snow 28 -2.2 27 -2.8 96 96 SE 5 7 29.9 1012 1.5 2.41401 0.02 0.508
7:22 am 07:22 Cloudy with Light Snow 28 -2.2 28 -2.2 100 100 SE 3 6 29.97 1015 2 3.21868 0.01 0.254
7:29 am 07:29 Cloudy with Light Snow 28 -2.2 28 -2.2 100 100 Calm 29.97 1015 1.75 2.816345 0.01 0.254
7:53 am 07:53 Cloudy with Light Snow 29 -1.7 28 -2.2 96 96 ESE 6 9 29.88 1012 1.25 2.011675 0.01 0.254
8:03 am 08:03 Cloudy with Light Snow 29 -1.7 28 -2.2 96 96 ESE 7 11 29.95 1014 1.25 2.011675 0.001 0.001
8:19 am 08:19 Cloudy with Light Snow 29 -1.7 28 -2.2 96 96 SE 5 7 29.95 1014 2.5 4.02335 0.01 0.254
8:32 am 08:32 Cloudy with Light Snow 29 -1.7 29 -1.7 100 100 ESE 6 9 29.94 1014 3 4.82802 0.01 0.254
8:53 am 08:53 Cloudy with Light Snow 30 -1.1 29 -1.7 96 96 ESE 5 7 29.87 1011 4 6.43736 0.01 0.254
9:03 am 09:03 Cloudy with Light Snow 30 -1.1 29 -1.7 96 96 ESE 6 9 29.93 1013 2.5 4.02335 0.001 0.001
9:49 am 09:49 Cloudy with Light Snow 30 -1 30 -1 100 100 ESE 9 15 29.93 1013 1.5 2.41401 0.001 0.001
9:53 am 09:53 Cloudy with Light Snow 31 -0.6 29 -1.7 92 92 ESE 9 15 29.86 1011 1.75 2.816345 0.001 0.001
10:10 am 10:10 Cloudy with Light Snow 31 -0.6 30 -1.1 96 96 ESE 9 15 29.91 1013 2.5 4.02335 0.001 0.001
10:17 am 10:17 Cloudy with Light Snow 31 -0.6 30 -1.1 96 96 SE 8 13 29.9 1013 3 4.82802 0.001 0.001
10:34 am 10:34 Cloudy with Light Snow 31 -0.6 29 -1.7 92 92 SE 10 17 29.89 1012 2.5 4.02335 0.001 0.001
10:50 am 10:50 Cloudy with Light Snow 30 -1 30 -1 100 100 SE 8 13 29.9 1012 3 4.82802 0.001 0.001
10:53 am 10:53 Cloudy with Light Snow 31 -0.6 30 -1.1 96 96 ESE 8 13 29.84 1010 4 6.43736 0.001 0.001
11:25 am 11:25 Cloudy with Light Snow 31 -0.6 29 -1.7 92 92 SE 9 15 29.88 1012 2.5 4.02335 0.001 0.001
11:33 am 11:33 Cloudy with Light Snow 31 -0.6 30 -1.1 96 96 SE 8 13 29.87 1012 3 4.82802 0.001 0.001
11:53 am 11:53 Cloudy with Light Snow 31 -0.6 30 -1.1 96 96 SE 9 15 29.82 1010 3 4.82802 0.001 0.001
12:07 pm 12:07 Cloudy with Light Snow 31 -0.6 30 -1.1 96 96 ESE 10 17 29.85 1011 3 4.82802 0.01 0.254
12:17 pm 12:17 Cloudy with Light Snow 31 -0.6 30 -1.1 96 96 ESE 10 17 29.85 1011 2 3.21868 0.01 0.254
12:40 pm 12:40 Cloudy with Light Snow 30 -1 30 -1 100 100 ESE 9 15 29.85 1011 2.5 4.02335 0 0
12:53 pm 12:53 Cloudy with Light Snow 31 -0.6 30 -1.1 96 96 E 9 15 29.79 1009 3 4.82802 0.01 0.254
1:48 pm 13:48 Cloudy with Light Snow 32 0 30 -1 93 93 E 8 13 29.82 1010 3 4.82802 0 0
1:53 pm 13:53 Cloudy with Light Snow 32 0 30 -1.1 92 92 E 8 13 29.78 1009 3 4.82802 0.001 0.001
2:22 pm 14:22 Cloudy with Light Snow 32 0 30 -1.1 92 92 E 8 13 29.83 1010 3 4.82802 0.001 0.001
2:26 pm 14:26 Cloudy with Light Snow 32 0 30 -1.1 92 92 E 8 13 29.83 1010 2.5 4.02335 0.001 0.001
2:36 pm 14:36 Cloudy with Light Snow 32 0 30 -1 93 93 ESE 9 15 29.83 1010 1.75 2.816345 0 0
2:50 pm 14:50 Cloudy with Light Snow 30 -1 30 -1 100 100 ESE 12 19 29.84 1010 1 1.60934 0.01 0.254
2:53 pm 14:53 Cloudy with Light Snow 31 -0.6 30 -1.1 96 96 E 10 17 29.78 1009 1 1.60934 0.01 0.254
3:01 pm 15:01 Cloudy with Light Snow 31 -0.6 30 -1.1 96 96 E 10 17 29.83 1010 1.5 2.41401 0.001 0.001
3:15 pm 15:15 Cloudy with Light Snow 31 -0.6 30 -1.1 96 96 E 9 15 29.83 1010 2 3.21868 0.001 0.001
3:26 pm 15:26 Cloudy with Light Snow 31 -0.6 30 -1.1 96 96 E 12 19 29.83 1010 3 4.82802 0.001 0.001
3:37 pm 15:37 Cloudy with Light Snow 31 -0.6 30 -1.1 96 96 E 10 17 29.83 1010 2.5 4.02335 0.001 0.001
3:50 pm 15:50 Cloudy with Light Snow 30 -1 30 -1 100 100 ESE 12 19 29.85 1011 2.5 4.02335 0 0
3:53 pm 15:53 Cloudy with Light Snow 31 -0.6 29 -1.7 92 92 ESE 13 20 29.79 1009 2.5 4.02335 0.001 0.001
4:04 pm 16:04 Cloudy with Light Snow 31 -0.6 29 -1.7 92 92 ESE 12 19 29.84 1010 4 6.43736 0.001 0.001
4:44 pm 16:44 Cloudy 30 -1 28 -2 93 93 ESE 12 19 29.85 1011 10 16.0934 0 0
4:53 pm 16:53 Cloudy 30 -1.1 28 -2.2 92 92 ESE 12 19 29.8 1009 10 16.0934 0.001 0.001
5:20 pm 17:20 Cloudy with Light Snow 30 -1.1 29 -1.7 96 96 ESE 9 15 29.85 1011 2.5 4.02335 0.001 0.001
5:28 pm 17:28 Cloudy with Light Snow 30 -1.1 29 -1.7 96 96 ESE 9 15 29.86 1011 1.25 2.011675 0.01 0.254
5:53 pm 17:53 Cloudy with Light Snow 30 -1.1 29 -1.7 96 96 ESE 9 15 29.8 1009 1.5 2.41401 0.03 0.762
6:28 pm 18:28 Cloudy with Light Snow 30 -1.1 29 -1.7 96 96 ESE 9 15 29.86 1011 2.5 4.02335 0.01 0.254
6:31 pm 18:31 Cloudy with Light Snow 30 -1.1 29 -1.7 96 96 ESE 9 15 29.86 1011 3 4.82802 0.01 0.254
6:53 pm 18:53 Cloudy with Light Snow 30 -1.1 28 -2.2 92 92 ESE 12 19 29.8 1009 6 9.65604 0.01 0.254
7:11 pm 19:11 Cloudy with Light Snow 29 -1.7 28 -2.2 96 96 ESE 9 15 29.88 1012 1.75 2.816345 0.001 0.001
7:29 pm 19:29 Cloudy with Light Snow 29 -1.7 28 -2.2 96 96 ESE 9 15 29.88 1012 3 4.82802 0.01 0.254
7:53 pm 19:53 Cloudy 29 -1.7 28 -2.2 96 96 ESE 10 17 29.81 1010 9 14.48406 0.01 0.254
8:25 pm 20:25 Cloudy with Light Snow 29 -1.7 28 -2.2 96 96 ESE 10 17 29.87 1011 4 6.43736 0.001 0.001
8:53 pm 20:53 Cloudy with Light Snow 29 -1.7 27 -2.8 92 92 ESE 12 19 29.79 1009 9 14.48406 0.01 0.254
9:04 pm 21:04 Cloudy 28 -2 27 -3 93 93 ESE 12 19 29.86 1011 10 16.0934 0 0
9:16 pm 21:16 Cloudy 28 -2.2 27 -2.8 96 96 ESE 13 20 29.87 1011 10 16.0934 0.001 0.001
9:53 pm 21:53 Cloudy 28 -2.2 27 -2.8 96 96 ESE 12 19 29.79 1009 10 16.0934 0.001 0.001
10:09 pm 22:09 Cloudy 28 -2.2 27 -2.8 96 96 ESE 12 19 29.87 1011 10 16.0934 0 0
10:53 pm 22:53 Cloudy with Light Wintry Mix 28 -2.2 27 -2.8 96 96 E 8 13 29.79 1009 9 14.48406 0.001 0.001
11:07 pm 23:07 Cloudy with Light Snow 28 -2.2 27 -2.8 96 96 ESE 7 11 29.87 1011 4 6.43736 0.001 0.001
11:17 pm 23:17 Cloudy with Light Snow 28 -2.2 27 -2.8 96 96 ESE 9 15 29.88 1012 2.5 4.02335 0.001 0.001
11:35 pm 23:35 Cloudy with Light Snow 28 -2.2 27 -2.8 96 96 ESE 7 11 29.88 1012 3 4.82802 0.001 0.001
11:53 pm 23:53 Cloudy with Light Snow 28 -2.2 27 -2.8 96 96 ESE 5 7 29.8 1009 3 4.82802 0.01 0.254

Powered by AerisWeather